338P/McNaught (2016)

Japanese version
Home page
Updated on February 7, 2017

---------------------------------------------------------------------

* Profile

Designation 338P/2016 N1
Recovery Date July 2, 2016
Magnitude 19.0 mag
Recoverer E. Schwab, D. Abreu (European Space Agency's Optical Ground Station, Tenerife)

* Pictures

* Orbital Elements

Epoch 2016 Nov. 28.0 TT = JDT 2457720.5
T 2016 Nov. 22.16333 TT                                 MPCW
q   2.3019659            (2000.0)            P               Q
n   0.12772427     Peri.    4.55969     +0.97001648     -0.23183152
a   3.9049946      Node     9.81056     +0.20724734     +0.63222655
e   0.4105073      Incl.   25.35030     +0.12695105     +0.73928596
P   7.72
From 216 observations 2008 May 10-2016 July 3, mean residual 1".1.

* Finding Charts

* Magnitudes Graph

        m1 = 5.5 + 5 log d + 30.0 log r

        * Gray curve is:  m1 = 7.5 + 5 log d + 20.0 log r(t + 50)

---------------------------------------------------------------------

The orbital elements are published on M.P.E.C. 2016-N12.
The charts are made with StellaNavigator Ver.8 (AstroArts).
The magnitudes graphs are made with Comet for Windows.

---------------------------------------------------------------------

Copyright(C) Seiichi Yoshida (comet@aerith.net). All rights reserved.